AO-07 1 07530U 74089B 24123.51583610 -.00000015 00000-0 19325-3 0 9994 2 07530 101.9780 117.7382 0012246 169.7807 311.9356 12.53674808263312 UO-11 1 14781U 84021B 24123.85861006 .00002134 00000-0 24722-3 0 9992 2 14781 97.7017 94.5085 0006957 216.4336 143.6407 14.86481324162754 AO-16 1 20439U 90005D 24123.55283666 .00000284 00000-0 12007-3 0 9992 2 20439 98.9008 127.3998 0010488 351.8676 127.6582 14.33348658790798 LO-19 1 20442U 90005G 24123.43660988 .00000301 00000-0 12570-3 0 9994 2 20442 98.8814 112.5062 0011025 324.6919 35.3533 14.33508620791227 AO-27 1 22825U 93061C 24123.58332413 .00000173 00000-0 84072-4 0 9995 2 22825 98.7925 175.8744 0007942 205.2245 154.8551 14.30472394596094 IO-26 1 22826U 93061D 24123.43415619 .00000217 00000-0 10023-3 0 9993 2 22826 98.7871 175.5864 0008751 190.6084 169.4914 14.30851191596352 FO-29 1 24278U 96046B 24123.57248047 .00000006 00000-0 45269-4 0 9993 2 24278 98.5779 64.2089 0349204 306.5258 50.4191 13.53185355368264 NOAA-15 1 25338U 98030A 24123.85772323 .00000300 00000-0 14198-3 0 9999 2 25338 98.5724 151.9243 0011591 97.3278 262.9220 14.26555704350972 GO-32 1 25397U 98043D 24123.49677200 .00000170 00000-0 94016-4 0 9999 2 25397 98.9185 89.5475 0000521 350.3184 9.7984 14.24029879340918 ISS 1 25544U 98067A 24123.66824669 .00013582 00000-0 23848-3 0 9996 2 25544 51.6404 181.0985 0003641 129.6424 13.5456 15.50829152451480 NO-44 1 26931U 01043C 24123.29495755 .00000359 00000-0 16710-3 0 9992 2 26931 67.0499 90.1092 0006422 282.0550 77.9832 14.31199904179380 SO-50 1 27607U 02058C 24123.08252488 .00001737 00000-0 25320-3 0 9999 2 27607 64.5568 3.2382 0030535 135.4517 224.9049 14.78743961149507 CO-55 1 27844U 03031E 24123.53493526 .00000535 00000-0 25590-3 0 9998 2 27844 98.6786 131.2007 0008462 278.2226 81.7992 14.23199937 81298 CO-57 1 27848U 03031J 24123.24026545 .00000486 00000-0 23664-3 0 9998 2 27848 98.6815 131.1804 0008479 297.4968 62.5347 14.22650267 81000 RS-22 1 27939U 03042A 24123.89309677 .00001769 00000-0 30518-3 0 9993 2 27939 98.2859 279.3970 0011820 198.1121 316.2266 14.69732829101622 NOAA-18 1 28654U 05018A 24123.82512149 .00000295 00000-0 18093-3 0 9993 2 28654 98.8746 201.1660 0014277 187.5125 172.5835 14.13187547976852 CO-58 1 28895U 05043F 24123.35594599 .00002472 00000-0 44484-3 0 9997 2 28895 98.1944 259.1448 0016721 139.8218 220.4226 14.67420689987730 CO-65 1 32785U 08021C 24123.88224493 .00004546 00000-0 40890-3 0 9991 2 32785 97.7513 89.6201 0012911 113.3369 246.9212 14.96079314868771 AAUSAT2 1 32788U 08021F 24123.44637145 .00019194 00000-0 10263-2 0 9993 2 32788 97.5930 103.6363 0004650 4.6668 355.4606 15.15109598871391 CO-66 1 32791U 08021J 24123.47446214 .00009592 00000-0 72189-3 0 9992 2 32791 97.6862 94.9448 0007063 98.5351 261.6674 15.02719148869651 RS-30 1 32953U 08025A 24123.84159838 .00000049 00000-0 28298-3 0 9990 2 32953 82.4984 117.6927 0018819 200.2861 159.7474 12.43139900723492 PRISM 1 33493U 09002B 24123.05123290 .00019503 00000-0 98822-3 0 9997 2 33493 98.2107 166.7712 0013059 53.0449 307.1975 15.16952611832040 NOAA-19 1 33591U 09005A 24123.84101375 .00000263 00000-0 16561-3 0 9999 2 33591 99.0506 179.1538 0014687 62.9944 297.2725 14.12986856785224 SRMSAT 1 37841U 11058D 24123.52677729 .00000535 00000-0 14781-3 0 9992 2 37841 19.9717 72.9414 0011632 312.9750 206.5688 14.11092132648104 HRBE 1 37855U 11061F 24123.40237778 .00158955 00000-0 14474-2 0 9992 2 37855 101.6882 279.9363 0047812 122.4219 238.1663 15.65898902685841 RS-40 1 38735U 12041C 24123.60621476 .00000025 00000-0 11287-3 0 9997 2 38735 82.4792 198.2927 0016180 320.5477 39.4424 12.42607037533517 ZACUBE-1 1 39417U 13066B 24123.42282903 .00005919 00000-0 62605-3 0 9998 2 39417 97.7305 80.4483 0049652 313.5096 46.2000 14.88649220564772 Delfi-N3xt 1 39428U 13066N 24123.49597550 .00012384 00000-0 16067-2 0 9998 2 39428 97.8389 43.0625 0100455 236.1333 123.0289 14.77378136559526 GOMX-1 1 39430U 13066Q 24123.87397255 .00002870 00000-0 48293-3 0 9999 2 39430 97.7390 0.9937 0141862 37.4114 323.6864 14.63836058556413 LO-74 1 39440U 13066AA 24123.56958855 .00004917 00000-0 58785-3 0 9996 2 39440 97.8103 68.2501 0072475 63.9428 296.9223 14.82743163561575 AO-73 1 39444U 13066AE 24123.86978983 .00005975 00000-0 59222-3 0 9999 2 39444 97.7158 83.8987 0046784 292.6596 66.9679 14.91352110563941 SPROUT 1 39770U 14029E 24123.87717043 .00095895 00000-0 28347-2 0 9993 2 39770 98.0089 272.1386 0007391 280.1396 79.9011 15.34525904540677 DTUSAT-2 1 40030U 14033W 24123.59642743 .00006479 00000-0 55911-3 0 9990 2 40030 98.0035 74.8681 0008238 312.8131 47.2397 14.97601563535870 EO-80 1 40032U 14033Y 24123.09885876 .00006155 00000-0 53077-3 0 9995 2 40032 98.0049 74.3714 0008378 320.3672 39.6936 14.97652923535777 HODOYOSHI-1 1 40299U 14070B 24123.83669374 .00022493 00000-0 46911-3 0 9998 2 40299 97.1435 184.5660 0008235 189.2637 170.8462 15.45529524528116 XW-2C 1 40906U 15049H 24123.80145296 .00026187 00000-0 66609-3 0 9999 2 40906 97.4824 139.5211 0011253 106.3867 253.8616 15.39519674477481 XW-2D 1 40907U 15049J 24123.82414904 .00040201 00000-0 83512-3 0 9992 2 40907 97.4769 141.6202 0009693 99.1083 261.1263 15.45518802477689 LILACSAT-2 1 40908U 15049K 24123.81461583 .00008671 00000-0 34624-3 0 9992 2 40908 97.5265 132.2263 0013952 143.1141 217.1059 15.25308020476571 XW-2B 1 40911U 15049N 24123.83034809 .00038762 00000-0 82249-3 0 9995 2 40911 97.4745 141.7869 0009835 100.3275 259.9083 15.44900566477556 IO-86 1 40931U 15052B 24120.89491455 .00001709 00000-0 14438-3 0 9994 2 40931 6.0031 337.7523 0012633 120.8750 239.2621 14.77783700464303 ChubuSat-2 1 41338U 16012B 24123.61087777 .00005559 00000-0 34954-3 0 9996 2 41338 31.0016 324.0294 0011139 137.6835 222.4663 15.07669794450710 ChubuSat-3 1 41339U 16012C 24123.86854042 .00004862 00000-0 30922-3 0 9998 2 41339 31.0083 320.5867 0011186 145.9096 214.2262 15.07164924450736 Horyu-4 1 41340U 16012D 24123.76895727 .00011654 00000-0 60103-3 0 9995 2 41340 31.0016 271.3358 0009248 229.6144 130.3688 15.15070167451254 e-st@r-II 1 41459U 16025D 24123.42934016 .02083827 46772-2 18227-2 0 9998 2 41459 98.1076 11.2251 0008639 56.4317 303.7790 16.14266405442464 Lapan A3 1 41603U 16040E 24123.83725050 .00003929 00000-0 16083-3 0 9991 2 41603 97.1451 139.6182 0010198 260.2886 99.7201 15.24824271436315 Pratham 1 41783U 16059A 24123.50106167 .00001056 00000-0 20520-3 0 9996 2 41783 97.8397 144.9812 0033094 163.1083 197.1230 14.64744561405855 CAS-2T 1 41847U 16066G 24123.62341305 .00001073 00000-0 16720-3 0 9999 2 41847 98.4622 195.2575 0353854 314.7140 42.5726 14.41081337392933 CAS-4B 1 42759U 17034B 24123.85895309 .00014926 00000-0 57038-3 0 9999 2 42759 43.0170 122.4109 0011625 43.2690 316.9073 15.26373916380476 CAS-4A 1 42761U 17034D 24123.86367078 .00015350 00000-0 58400-3 0 9996 2 42761 43.0185 120.7611 0010379 49.7337 310.4420 15.26513977380487 Aalto 1 1 42775U 17036L 24123.59547562 .00062290 00000-0 78101-3 0 9996 2 42775 97.1107 152.9179 0004576 40.9173 319.2426 15.59543548381987 URSA MAIOR 1 42776U 17036M 24123.61871299 .00131367 00000-0 10012-2 0 9995 2 42776 97.1062 156.4324 0001608 45.4922 314.6473 15.71838965382205 Max Valier Sat 1 42778U 17036P 24123.36535951 .00137004 00000-0 10336-2 0 9994 2 42778 97.1033 160.2834 0002342 77.7728 282.3798 15.72063178382345 D-SAT 1 42794U 17036AF 24123.38658353 .00006417 00000-0 46030-3 0 9990 2 42794 97.4965 106.9431 0106918 303.1879 55.9126 15.00127450373857 TechnoSat 1 42829U 17042E 24123.84566609 .00003751 00000-0 33750-3 0 9992 2 42829 97.3837 307.4720 0011853 221.5393 138.4930 14.96146469370390 AO-91 1 43017U 17073E 24123.61294668 .00010280 00000-0 64304-3 0 9998 2 43017 97.5851 0.7314 0215824 86.0648 276.5213 14.92234848348861 TianYi 2 1 43155U 18008A 24123.85791645 .00072630 00000-0 12278-2 0 9992 2 43155 97.2421 177.2299 0008013 223.2045 136.8579 15.51316584347857 Zhou Enlai 1 43156U 18008B 24123.85684541 .00117256 00000-0 15246-2 0 9991 2 43156 97.2456 178.6152 0006768 221.5835 138.4907 15.58363618347852 TianYi 6 1 43158U 18008D 24123.59832195 .00038860 00000-0 90769-3 0 9991 2 43158 97.2591 172.2292 0006600 236.0629 123.9991 15.42065429347434 S-Net D 1 43186U 18014G 24123.68771154 .00005305 00000-0 38855-3 0 9992 2 43186 97.5932 26.3376 0011076 154.0612 206.1171 15.03924334341662 S-Net B 1 43187U 18014H 24123.29055594 .00005145 00000-0 37702-3 0 9995 2 43187 97.5933 25.8938 0012065 151.2395 208.9498 15.03912974341601 S-Net A 1 43188U 18014J 24123.42275619 .00005337 00000-0 39081-3 0 9998 2 43188 97.5940 26.1326 0011941 151.4793 208.7089 15.03922644341622 S-Net C 1 43189U 18014K 24123.29274190 .00004885 00000-0 35799-3 0 9996 2 43189 97.5957 25.9436 0013911 145.4623 214.7509 15.03913878340154 Changshagaoxin 1 43669U 18083H 24123.86561908 .01092225 62134-3 19819-2 0 9993 2 43669 97.3168 162.4155 0005973 215.8307 144.2572 16.01605530306650 Ten-Koh 1 43677U 18084G 24123.38640091 .00003666 00000-0 33508-3 0 9994 2 43677 98.0578 275.6033 0014601 164.2087 195.9591 14.95595874299873 PO-101 1 43678U 18084H 24123.90110195 .00002212 00000-0 20763-3 0 9995 2 43678 98.0660 280.5857 0009397 174.0515 186.0818 14.95030718300154 QO-100 1 43700U 18090A 24123.49794580 .00000143 00000-0 00000-0 0 9998 2 43700 0.0149 268.5585 0001754 172.4170 344.9990 1.00273966 19897 MinXSS-2 1 43758U 18099A 24123.13207035 .00011059 00000-0 72353-3 0 9996 2 43758 97.5569 186.2270 0018505 116.0858 244.2278 15.07794802295844 AO-95 1 43770U 18099N 24123.10834245 .00008472 00000-0 60209-3 0 9998 2 43770 97.5497 181.9578 0014998 156.1825 204.0099 15.04838643295633 RANGE-B 1 43772U 18099Q 24123.44646366 .00011047 00000-0 71116-3 0 9993 2 43772 97.5278 185.6192 0006397 76.1674 284.0266 15.08515633295822 RANGE-A 1 43773U 18099R 24123.40688879 .00004784 00000-0 37068-3 0 9993 2 43773 97.5092 178.1285 0017319 127.5707 232.7093 15.01762045295564 MOVE-II 1 43780U 18099Y 24123.44632871 .00016851 00000-0 93864-3 0 9990 2 43780 97.5248 186.9206 0008633 134.2457 225.9485 15.13654267296009 SNUSat 2 1 43782U 18099AA 24123.43090946 .00007868 00000-0 57017-3 0 9990 2 43782 97.5183 181.6695 0016668 99.5927 260.7183 15.04108962295697 SnugLite 1 43784U 18099AC 24123.61580524 .00007066 00000-0 49936-3 0 9999 2 43784 97.4998 181.2217 0006662 106.8841 253.3117 15.05182390295781 ITASat 1 1 43786U 18099AE 24123.61689403 .00005724 00000-0 42247-3 0 9994 2 43786 97.5149 182.1822 0019350 142.7192 217.5382 15.03492371295721 EAGLET 1 1 43790U 18099AJ 24123.68969200 .00004455 00000-0 34107-3 0 9998 2 43790 97.5351 182.7200 0016692 122.3474 237.9370 15.02264791295444 ESEO 1 43792U 18099AL 24123.42896423 .00002827 00000-0 23544-3 0 9992 2 43792 97.5196 179.6096 0014564 124.7146 235.5452 14.99341358295343 CSIM 1 43793U 18099AM 24123.43154409 .00015015 00000-0 83755-3 0 9998 2 43793 97.5320 188.5908 0014669 112.1895 248.0894 15.13568882295857 JO-97 1 43803U 18099AX 24123.41519146 .00008329 00000-0 56970-3 0 9990 2 43803 97.5242 183.1276 0011974 100.9990 259.2585 15.06307227295800 Suomi 100 1 43804U 18099AY 24123.71058825 .00007993 00000-0 55580-3 0 9998 2 43804 97.5314 183.2218 0017521 98.3655 261.9559 15.05638524295830 CHOMPTT 1 43855U 18104G 24123.73884193 .00636940 18193-3 12145-2 0 9992 2 43855 84.9999 302.3359 0005340 232.9801 127.0995 16.00639648300433 ISAT 1 43879U 18111D 24123.48350087 .00010350 00000-0 65405-3 0 9992 2 43879 97.6226 29.4396 0014479 148.1603 212.0504 15.09148011292520 UWE-4 1 43880U 18111E 24123.24375899 .00008260 00000-0 53401-3 0 9996 2 43880 97.6140 29.3314 0017763 158.9405 201.2559 15.08335666292505 Sparrow 1 43881U 18111F 24123.53593908 .00009924 00000-0 61965-3 0 9994 2 43881 97.6311 31.3079 0010096 183.3568 176.7595 15.09644281292593 AISat 1 1 44104U 19018AC 24123.54343687 .00139226 00000-0 69169-3 0 9991 2 44104 97.3616 231.3664 0017648 156.5303 203.6774 15.81342807285622 Prox-1 1 44339U 19036A 24123.44494853 .00008964 00000-0 15712-2 0 9990 2 44339 23.9987 159.4579 0008930 205.0544 154.9517 14.65687792258522 SONATE 1 44400U 19038Q 24123.90785310 .00018493 00000-0 59854-3 0 9997 2 44400 97.7133 116.0565 0014082 264.1495 95.8140 15.32005610267144 BeeSat 9 1 44412U 19038AC 24123.75998446 .00226685 00000-0 14660-2 0 9998 2 44412 97.6797 127.5167 0008915 181.8110 178.3124 15.75373426267637 JAISAT-1 1 44419U 19038F 24123.73588708 .00214732 00000-0 15191-2 0 9999 2 44419 97.6780 128.4604 0008402 179.5856 180.5415 15.73319249268005 Taurus 1 1 44530U 19059C 24123.85008273 .00005938 00000-0 14029-2 0 9998 2 44530 98.5698 242.8578 0012716 188.4550 171.6434 14.54488282245178 Duchifat 3 1 44854U 19089C 24123.86685488 .00013698 00000-0 72741-3 0 9998 2 44854 36.9586 323.8497 0006821 60.5826 299.5600 15.14694403241324 OPS-SAT 1 44878U 19092F 24123.52471687 .00236712 00000-0 11691-2 0 9995 2 44878 97.4409 327.6806 0000593 230.4374 129.6842 15.81445318243357 TO-108 1 44881U 19093C 24123.78763873 .00001417 00000-0 17802-3 0 9992 2 44881 97.8289 201.4483 0015814 109.9701 250.3218 14.83568522236318 FloripaSat 1 1 44885U 19093G 24123.75037780 .00004993 00000-0 52838-3 0 9994 2 44885 97.8400 206.6926 0013981 106.1586 254.1171 14.89552420236607 RS-44 1 44909U 19096E 24123.53241876 .00000030 00000-0 71824-4 0 9998 2 44909 82.5178 135.1138 0217946 157.6649 203.4124 12.79729145203130 BY70-2 1 45857U 20042B 24123.87177394 .00080483 00000-0 37766-2 0 9999 2 45857 97.9070 214.8490 0004178 325.5404 34.5558 15.19303633207647 UPMSat 2 1 46276U 20061E 24123.73749443 .00014694 00000-0 47510-3 0 9991 2 46276 97.3004 190.5630 0000368 126.9362 233.1913 15.32173469203211 AmicalSat 1 46287U 20061R 24123.43452609 .00027193 00000-0 82905-3 0 9990 2 46287 97.3525 190.7787 0001991 76.5069 283.6396 15.33922958202549 SALSAT 1 46495U 20068K 24123.36924510 .00007416 00000-0 43074-3 0 9995 2 46495 97.8125 81.5476 0016033 108.4290 251.8684 15.12314424197389 UVSQ-SAT 1 47438U 21006AB 24123.13283714 .00041021 00000-0 93571-3 0 9992 2 47438 97.3312 183.1573 0005794 32.4050 327.7553 15.42771375181622 YUSAT 1 1 47439U 21006AC 24123.69113891 .00091546 00000-0 12703-2 0 9996 2 47439 97.3272 187.3207 0003044 359.6655 0.4597 15.56726049181940 SOMP 2b 1 47445U 21006AJ 24123.11833010 .00035697 00000-0 87962-3 0 9997 2 47445 97.3277 181.6490 0006285 42.3487 317.8244 15.40468225181555 IDEASSat 1 47458U 21006AX 24123.60542646 .00029734 00000-0 78712-3 0 9995 2 47458 97.3385 182.7717 0006413 42.4522 317.7218 15.38309293181575 CubeSX-Sirius-HSE 1 47951U 21022V 24123.88976064 .00017203 00000-0 72072-3 0 9997 2 47951 97.4651 22.4257 0012625 302.1004 57.9007 15.23526633171674 CubeSX-HSE 1 47952U 21022W 24123.78073956 .00017684 00000-0 73859-3 0 9992 2 47952 97.4651 22.4008 0012520 301.7283 58.2733 15.23626371171666 KSU-Cubesat 1 47954U 21022Y 24123.45649421 .00020822 00000-0 80759-3 0 9999 2 47954 97.4660 23.2017 0011284 298.3721 61.6379 15.26089007171409 GRBAlpha 1 47959U 21022AD 24123.81365863 .00018279 00000-0 76098-3 0 9993 2 47959 97.4654 22.5751 0012402 301.6116 58.3910 15.23728728170492 Orbicraft-Zorkiy 1 47960U 21022AE 24123.86230392 .00020686 00000-0 81661-3 0 9995 2 47960 97.4693 23.7495 0011533 297.9620 62.0451 15.25498501171247 STECCO 1 47962U 21022AG 24123.83286472 .00090216 00000-0 16933-2 0 9999 2 47962 97.4657 31.5499 0003997 219.5559 140.5400 15.48290185171087 MO-110 1 47964U 21022AJ 24123.54345822 .00097043 00000-0 15845-2 0 9990 2 47964 97.4678 32.7228 0005147 212.7955 147.2978 15.52217023171123 TUBIN 1 48900U 21059X 24123.84601166 .00014590 00000-0 52955-3 0 9990 2 48900 97.6395 267.2344 0006741 238.7564 121.3015 15.28408133157992 LEDSAT 1 49069U 21073D 24123.68421768 .00015049 00000-0 63870-3 0 9991 2 49069 97.4395 195.1724 0021051 86.2851 274.0792 15.22982801149525 CUTE 1 49263U 21088D 24123.14361613 .00016144 00000-0 80250-3 0 9994 2 49263 97.5003 189.4976 0014056 234.6310 125.3611 15.17639038142659 TeikyoSat 4 1 49396U 21102B 24123.07935745 .00003491 00000-0 25609-3 0 9991 2 49396 97.4643 169.6489 0014596 75.3229 284.9614 15.04039541135827 Z-Sat 1 49399U 21102E 24123.89148299 .00004664 00000-0 30657-3 0 9996 2 49399 97.4354 171.8819 0021684 56.4788 303.8508 15.07875713136160 KOSEN 1 1 49402U 21102H 24123.62362304 .00006742 00000-0 40868-3 0 9991 2 49402 97.4281 172.9046 0019879 42.9628 317.3150 15.10715323136262 HO-113 1 50466U 21131B 24123.80964349 .00000833 00000-0 28122-3 0 9996 2 50466 98.5271 209.0954 0003051 255.3504 104.7346 14.39542782123474 Tevel-3 1 50988U 22002E 24123.74780621 .00096308 00000-0 14452-2 0 9997 2 50988 97.3817 197.7592 0005202 180.8316 179.2930 15.54562797127960 Tevel-8 1 50989U 22002F 24123.84937807 .00095268 00000-0 14359-2 0 9999 2 50989 97.3838 197.9533 0005300 182.2535 177.8696 15.54445072127979 Tevel-5 1 50998U 22002Q 24123.75919932 .00116861 00000-0 15235-2 0 9995 2 50998 97.3808 198.8886 0005221 179.2465 180.8799 15.58303642128044 Tevel-6 1 50999U 22002R 24123.76349474 .00112409 00000-0 14742-2 0 9991 2 50999 97.3801 198.8653 0005148 179.5750 180.5511 15.58160582128041 Tevel-1 1 51013U 22002AF 24123.83811689 .00094755 00000-0 14294-2 0 9994 2 51013 97.3809 197.7215 0005142 178.3293 181.7979 15.54424080127976 IRIS-A 1 51044U 22002BN 24123.42104382 .00017080 00000-0 60042-3 0 9997 2 51044 97.3873 190.1525 0006957 182.7070 177.4134 15.29411716127428 Tevel-7 1 51062U 22002CG 24123.83977931 .00095411 00000-0 14312-2 0 9992 2 51062 97.3826 197.9176 0005136 178.0479 182.0796 15.54576979127979 Tevel-4 1 51063U 22002CH 24123.74392831 .00096073 00000-0 14611-2 0 9990 2 51063 97.3829 197.7326 0005175 176.6180 183.5110 15.54195044127958 Tevel-2 1 51069U 22002CP 24123.74617104 .00096470 00000-0 14455-2 0 9996 2 51069 97.3814 197.7251 0005120 179.8161 180.3095 15.54603336127965 SO-115 1 51080U 22002DA 24122.47895663 .00276652 00000-0 16868-2 0 9998 2 51080 97.4077 205.0990 0007967 223.2584 136.8057 15.76603837128131 SO-114 1 51081U 22002DB 24123.72478647 .00345197 00000-0 17347-2 0 9991 2 51081 97.4058 206.7155 0008083 230.2507 129.8050 15.80756068128354 OreSat0 1 52017U 22026K 24123.57360004 .00052664 00000-0 10441-2 0 9999 2 52017 97.4998 136.0089 0013396 37.3159 322.9018 15.46775163118640 Planetum 1 1 52738U 22057G 24123.82856338 .00037157 00000-0 10198-2 0 9990 2 52738 97.5604 248.4970 0005051 299.8613 60.2128 15.37152860107590 Foresail-1 1 52766U 22057AL 24123.56974462 .00017320 00000-0 60113-3 0 9994 2 52766 97.5757 248.0943 0009037 290.1999 69.8269 15.29814368107472 SNUGLITE 2 1 52899U 22065F 24123.36600834 .00001733 00000-0 36572-3 0 9990 2 52899 98.1126 265.4218 0006566 299.7772 60.2775 14.60605200 97575 IO-117 1 53106U 22080B 24122.27542277 -.00000003 00000-0 00000-0 0 9998 2 53106 70.1424 208.8146 0007885 116.9134 243.2332 6.42557250 42255 SelfieSat 1 53951U 22057BC 24123.61060848 .00062552 00000-0 12280-2 0 9999 2 53951 97.5629 251.2296 0006588 281.8481 78.2029 15.47090997107725 FO-118 1 54684U 22167C 24123.84097010 .00024931 00000-0 93404-3 0 9998 2 54684 97.5995 267.7077 0010066 301.3140 58.7112 15.27216632 77377 SSS-2B 1 56184U 23054G 24123.90770836 .00028121 00000-0 76777-3 0 9991 2 56184 97.3745 21.6175 0006297 359.8395 0.2846 15.37364852 59175 CIRBE 1 56188U 23054L 24123.69761018 .00051087 00000-0 10496-2 0 9995 2 56188 97.3658 22.6710 0004072 359.3834 0.7410 15.45828750 59241 INSPIRE-Sat 7 1 56211U 23054AK 24123.67338018 .00052892 00000-0 10297-2 0 9994 2 56211 97.3704 23.7675 0005095 317.3192 42.7661 15.47386673 59305 RoseyCubesat 1 1 56212U 23054AL 24123.84601631 .00068133 00000-0 11985-2 0 9998 2 56212 97.3711 24.4766 0004453 310.3568 49.7294 15.50234022 59369 SO-120 1 56992U 23084BU 24123.76706280 .00025632 00000-0 10244-2 0 9997 2 56992 97.5256 242.7528 0014095 184.0566 176.0560 15.25011924 49251 MRC-100 1 56993U 23084BV 24123.26806352 .00029813 00000-0 11373-2 0 9993 2 56993 97.5260 242.5199 0013538 186.3800 173.7268 15.26539742 49204 UmKA 1 (RS40S) 1 57172U 23091G 24123.85615665 .00004280 00000-0 29043-3 0 9996 2 57172 97.6159 176.3724 0015277 275.8327 84.1159 15.06861568 46663 CubeBel-2 (EU11S) 1 57175U 23091K 24123.88971301 .00007140 00000-0 47587-3 0 9995 2 57175 97.6162 176.3162 0013919 288.5599 71.4116 15.07308979 46664 VERONIKA 1 58261U 23174F 24123.84290966 .00015446 00000-0 73667-3 0 9997 2 58261 97.4619 199.1072 0012745 48.0802 312.1517 15.19105955 26829 KAFASAT 1 58317U 23174BP 24123.88154578 .00019247 00000-0 84761-3 0 9991 2 58317 97.4567 199.5427 0010884 26.0622 334.1159 15.21822782 26866 ENSO 1 58470U 23185J 24123.84948591 .00013993 00000-0 62336-3 0 9991 2 58470 97.4296 191.0966 0014234 82.3877 277.8975 15.21462151 23248 EIRSAT-1 1 58472U 23185L 24123.83678242 .00016982 00000-0 74753-3 0 9992 2 58472 97.4288 191.0979 0013868 83.7624 276.5191 15.21831682 23247 SO-121 1 58567U 23174CY 24123.19682271 .00038003 00000-0 15281-2 0 9999 2 58567 97.4567 198.9475 0011834 35.5910 324.6115 15.24747538 26763 SONATE-2 1 59112U 24043Q 24123.62113943 .00010600 00000-0 53210-3 0 9993 2 59112 97.4718 248.0132 0016359 94.8259 265.4842 15.17366967 8894 KASHIWA 1 59508U 98067WH 24123.41546881 .00079619 00000-0 11451-2 0 9992 2 59508 51.6353 181.9607 0002682 77.7175 282.4116 15.55360055 3345 /EX